Last 30 Days

Squaw-Belmont 8000'

Daily Data | America/Los_Angeles
as of 1/15/21 12:46 PM PST
Date Daily Max Temp (°F) Time of Max Temp Daily Min Temp (°F) Time of Min Temp Daily Rain (In) Seasonal Rainfall (In) New Snow (in) SnowDepth (in) Wind Spd (mph) Daily Max Wind (mph) Time of Max Wind Max Wind Dir (°) Max RH (%) Min RH (%) Wet Bulb (°F) WetB Hrs <28F (hrs) Bat Volt Min Day (V)
1/14/21 51.6 1423 34.9 0223 0.00 110.80 0.0 45.6 1.6 10.6 1115 E | 85 67 4 31.4 5.4 13.0
1/13/21 40.3 1336 34.8 2043 0.12 110.80 0.0 46.0 7.1 27.7 0524 SSW | 204 100 29 34.8 0.2 13.0
1/12/21 39.2 1248 29.7 1910 0.04 110.70 0.0 47.4 12.7 30.8 0512 SSE | 164 100 24 28.1 15.4 13.0
1/11/21 53.3 1344 32.0 0010 0.00 110.70 0.0 47.0 4.8 20.4 1956 SW | 236 54 8 28.1 14.8 13.0
1/10/21 39.4 1227 28.0 2216 0.00 110.70 0.0 47.2 5.7 22.0 0452 SW | 232 96 41 29.8 5.6 13.0
1/9/21 38.2 2334 19.0 0541 0.00 110.70 0.0 47.7 2.4 10.2 2143 NW | 325 98 8 23.0 21.8 13.1
1/8/21 35.4 0053 18.4 2307 0.15 110.70 0.0 48.1 9.9 34.1 1538 S | 180 100 11 24.5 18.6 13.1
1/7/21 43.4 1336 25.6 0624 0.00 110.50 0.0 48.0 3.7 24.1 0008 NW | 313 49 6 23.1 22.6 13.0
1/6/21 38.2 1136 27.4 2019 0.00 110.50 0.0 48.4 11.0 36.3 1422 SW | 226 91 12 24.4 23.8 13.0
1/5/21 41.6 1221 20.0 0438 0.42 110.50 0.0 48.7 4.8 21.6 0147 SSW | 206 98 14 22.6 22.4 13.1
1/4/21 32.2 1351 21.5 2322 1.26 110.10 10.9 49.9 16.4 48.0 1801 NE | 45 100 61 27.2 9.6 13.1
1/3/21 35.5 1330 25.3 0350 0.10 108.80 0.0 42.5 7.4 23.5 2319 SE | 133 100 61 27.7 13.2 13.0
1/2/21 31.5 1442 24.3 0509 0.14 108.70 0.0 42.3 10.2 36.6 0139 S | 188 100 69 28.0 10.4 13.0
1/1/21 45.5 0937 20.8 0140 0.00 108.60 1.8 41.9 8.1 34.4 2102 SSW | 194 99 9 24.6 17.0 13.0
12/31/20 26.7 1241 19.0 0901 0.32 108.60 0.0 43.2 7.1 38.7 0023 SW | 221 99 81 21.5 24.0 13.1
12/30/20 35.9 1334 20.7 1907 0.05 108.30 3.7 41.5 10.7 37.6 2327 WSW | 242 98 9 21.0 24.0 13.1
12/29/20 35.7 1235 13.1 0721 0.00 108.20 0.0 41.8 3.0 10.3 1706 NNE | 21 98 17 18.0 24.0 13.1
12/28/20 24.4 1414 17.4 2355 0.08 108.20 0.0 42.5 3.4 12.9 1912 ENE | 67 98 96 19.7 24.0 13.1
12/27/20 31.0 1155 18.6 0222 0.00 108.10 0.0 42.2 3.6 16.5 1929 ESE | 104 100 63 21.1 24.0 13.1
12/26/20 27.2 0034 18.2 2115 1.00 108.10 0.0 43.2 8.5 42.9 0154 W | 260 100 69 22.1 24.0 13.1
12/25/20 35.5 1226 26.6 2330 0.69 107.10 5.1 38.9 15.8 49.0 2137 NE | 39 99 24 26.6 18.3 13.1
12/24/20 45.4 1314 29.2 1821 0.00 106.40 0.0 33.7 7.6 23.5 2142 SW | 227 44 11 24.7 21.6 13.0
12/23/20 37.6 1304 18.8 0428 0.00 106.40 0.0 33.9 3.6 19.8 0911 E | 97 88 13 20.9 24.0 13.1
12/22/20 49.6 1209 21.1 2353 0.04 106.40 0.0 34.2 7.1 47.5 0153 WSW | 238 99 12 23.5 21.1 13.0
12/21/20 48.8 1202 32.5 2332 0.00 106.40 0.0 34.6 8.7 36.7 2253 SW | 215 32 10 28.4 7.3 13.0
12/20/20 53.9 1326 38.9 0030 0.00 106.40 0.0 35.0 4.9 18.1 0458 NW | 313 23 10 29.6 4.7 13.0
12/19/20 47.1 1233 34.4 0640 0.00 106.40 0.0 35.8 8.4 20.2 0106 WSW | 238 48 9 27.5 17.5 13.0
12/18/20 38.7 1214 15.9 0330 0.00 106.40 0.0 36.6 3.5 17.9 2313 WNW | 291 98 18 22.8 23.0 13.1
12/17/20 32.0 0003 16.3 2334 0.87 106.40 0.0 37.2 7.9 34.8 0133 SSW | 203 99 44 23.3 23.8 13.1
12/16/20 44.7 1139 30.3 0624 0.00 105.50 0.0 32.8 8.4 30.1 1935 SW | 234 98 20 27.8 14.9 13.0
Max 53.9 - 38.9 - 1.26 - 10.9 49.9 16.4 49.0 - - 100 96 34.8 24.0 13.1
Avg - - - - - - 0.7 41.9 7.3 - - - - - 25.2 - -
Min 24.4 - 13.1 - 0.00 - 0.0 32.8 1.6 10.2 - - 23 4 18.0 0.2 13.0